Overview Statistics Trail Chart Weather Telemetry Raw packets
 

This is the latest recevied weather packets stored in our database for station/object WAKT. If no packets are shown the sender has not sent any weather packets the latest 10 day(s).

<< 1 2 3 4 5 6 7 >>
Time Temp. Humidity Pressure Rain* Wind** Luminosity Snow
1788226472 26.11° C 79% 1 hPa 0 mm - - -
1788224506 26.11° C 79% 1 hPa 0 mm - - -
1788222529 25° C 89% 1 hPa 0 mm - - -
1788220577 25° C 89% 1 hPa 0 mm - - -
1788218632 23.89° C 89% 1 hPa 0 mm - - -
1788216667 22.78° C 94% 1 hPa 0 mm - - -
1788214731 22.78° C 94% 1 hPa 0 mm - - -
1788212791 23.89° C 89% 1 hPa 0 mm - - -
1788210838 23.89° C 89% 1 hPa 0 mm - - -
1788208886 23.89° C 89% 1 hPa 0 mm - - -
1788206950 23.89° C 89% 1 hPa 0 mm - - -
1788205013 23.89° C 89% 1 hPa 0 mm - - -
1788203078 23.89° C 89% 1 hPa 0 mm - - -
1788201143 23.89° C 89% 1 hPa 0 mm - - -
1788199188 23.89° C 89% 1 hPa 0 mm - - -
1788197191 23.89° C 89% 1 hPa 0 mm - - -
1788192907 25° C 83% 1 hPa 0 mm - - -
1788186369 26.11° C 84% 1 hPa 0 mm - - -
1788181646 25° C 89% 1 hPa 0 mm - - -
1788179202 26.11° C 84% 1 hPa 0 mm - - -
1788177208 26.11° C 84% 1 hPa 0 mm - - -
1788172981 23.89° C 89% 1 hPa 0 mm - - -
1788168799 27.22° C 79% 1 hPa 0 mm - - -
1788166608 27.22° C 84% 1 hPa 0 mm - - -
1788162324 30° C 70% 1 hPa 0 mm - - -

* Rain latest hour (hover to see other rain measurements)
** Current wind speed in m/s (hover to see current wind gust speed)